Regional Weather Roundup
Issued by NWS Columbia, SC

Home | Current Version | Previous Version | Text Only | Print | Product List | Glossary On
Versions: 1 2 3 4 5 6 7 8 9 10 11 12 13 14 15 16 17 18 19 20 21 22 23 24 25 26 27 28 29 30 31 32 33 34 35 36 37 38 39 40 41 42 43 44 45 46 47 48 49 50
000
ASUS42 KCAE 232310
RWRCAE
REGIONAL WEATHER ROUNDUP
NATIONAL WEATHER SERVICE COLUMBIA SC
600 PM EST THU FEB 23 2017

NOTE: "FAIR" INDICATES FEW OR NO CLOUDS BELOW 12,000 FEET WITH NO
SIGNIFICANT WEATHER AND/OR OBSTRUCTIONS TO VISIBILITY.

NOT ALL STATIONS ARE QUALITY CONTROLLED BY THE NATIONAL
WEATHER SERVICE. USE DATA WITH CAUTION...ESPECIALLY
DEWPOINT OBSERVATIONS.

SCZ001>056-GAZ040-063>065-077-240000-
...UPSTATE SOUTH CAROLINA...

CITY           SKY/WX    TMP DP  RH WIND       PRES   REMARKS
ANDERSON       FAIR      72  49  44 E3        29.84R
LIBERTY        CLOUDY    71  52  51 E3        29.85R
SPARTANBURG    FAIR      72  43  35 SE5       29.85R
CLEMSON        MOCLDY    73  52  47 CALM      29.86R
GREENVILLE     CLOUDY    72  51  47 N6        29.86R
GREENWOOD      FAIR      71  46  40 E3        29.86R
GREER          MOCLDY    69  52  54 N3        29.84R
ROCK HILL      FAIR      71  47  42 CALM      29.87R
CHESTER        FAIR      70  45  40 S3        29.87R
LAURENS        FAIR      72  48  43 SE5       29.85R


...CENTRAL SOUTH CAROLINA...

CITY           SKY/WX    TMP DP  RH WIND       PRES   REMARKS
COLUMBIA APT   FAIR      76  50  40 E5        29.83R
COLUMBIA OWENS FAIR      75  51  43 E3        29.84R
MCENTIRE ANGB  PTCLDY    73  53  49 CALM      29.84R
ORANGEBURG     FAIR      73  55  53 E5        29.83R
SUMTER SHAW    FAIR      72  55  53 SE5       29.82R
AIKEN          FAIR      70  52  52 NE3       29.87R
BARNWELL       FAIR      75  57  53 NE6       29.82S
MANNING        FAIR      68  55  64 MISG      29.85R
CAMDEN         FAIR      72  54  53 CALM      29.85R
LANCASTER      FAIR      72  48  43 SE5       29.86R
WINNSBORO      FAIR      72  50  46 CALM      29.85R


...EASTERN AND COASTAL SOUTH CAROLINA...

CITY           SKY/WX    TMP DP  RH WIND       PRES   REMARKS
MYRTLE BEACH   MOCLDY    66  57  72 E12       29.88R
N MYRTLE BCH   FAIR      66  58  75 E10       29.86R
CONWAY         FAIR      68  57  68 SE3       29.87R
MARION         FAIR      68  55  64 SE5       29.86R
HARTSVILLE     FAIR      70  54  56 CALM      29.85R
FLORENCE       MOCLDY    70  57  63 S9        29.85R
DARLINGTON     FAIR      71  56  58 SE8       29.86R
CHARLESTON APT FAIR      70  60  70 E14       29.83R
MOUNT PLEASANT FAIR      70  61  73 CALM      29.84R
WALTERBORO     MOCLDY    72  57  60 E8        29.83S
BEAUFORT       FAIR      71  63  75 E8        29.82R


...EASTERN GEORGIA...

CITY           SKY/WX    TMP DP  RH WIND       PRES   REMARKS
AUGUSTA BUSH F FAIR      75  53  46 CALM      29.81S
AUGUSTA DANIEL FAIR      75  49  39 E6        29.83R
THOMSON        FAIR      75  56  51 E3        29.87R
WASHINGTON     FAIR      75  54  46 CALM      29.83S
CLAXTON        FAIR     N/A N/A N/A NE5       29.82R
SYLVANIA       CLOUDY   N/A N/A N/A SE5       29.83R
STATESBORO     FAIR      72  63  72 E3        29.82R
SAVANNAH       MOCLDY    71  58  63 E12       29.82R


...SOUTHERN NORTH CAROLINA...

CITY           SKY/WX    TMP DP  RH WIND       PRES   REMARKS
CHARLOTTE      FAIR      72  47  40 SE8       29.87R
MONROE         FAIR      70  50  49 CALM      29.86R
WADESBORO      FAIR      71  52  49 E3        29.85S
ROCKINGHAM     FAIR      71  54  56 E3        29.86R
RUTHERFORDTON  CLOUDY    69  53  55 CALM      29.87S
ASHEVILLE      FAIR      65  48  54 SE7       29.89R

$$



USA.gov is the U.S. government's official web portal to all federal, state and local government web resources and services.